Andover, NJ

6:23 PM EST on November 20, 2017 (GMT -0500)
Andover

Weather History for K12N - April, 2014

Change the Weather History Date:

Monday, April 21, 2014

  Actual Average (KFWN) Record (KFWN)
Temperature  
Mean Temperature 50 °F -  
Max Temperature 70 °F 61 °F 88 °F (1976)
Min Temperature 30 °F 39 °F 24 °F (1961)
Degree Days  
Heating Degree Days 15    
Moisture  
Dew Point 24 °F    
Average Humidity 47    
Maximum Humidity 92    
Minimum Humidity 11    
Precipitation  
Precipitation 0.00 in - - ()
Sea Level Pressure  
Sea Level Pressure 30.09 in    
Wind  
Wind Speed 2 mph (SW)    
Max Wind Speed 12 mph    
Max Gust Speed 17 mph    
Averages and records for this station are not official NWS values.
T = Trace of Precipitation, MM = Missing Value Source: NWS Daily Summary

Daily Weather History Graph

Daily Weather History Graph

Search for Another Location

Airport or City:

Trip Planner

Search our weather history database for the weather conditions in past years. The results will help you decide how hot, cold, wet, or windy it might be!

Date:

Astronomy

Apr. 21, 2014 Rise Set
Actual Time 6:10 AM EDT 7:45 PM EDT
Civil Twilight 5:41 AM EDT 8:14 PM EDT
Nautical Twilight 5:06 AM EDT 8:49 PM EDT
Astronomical Twilight 4:29 AM EDT 9:26 PM EDT
Moon 1:13 AM EDT (4/21) 11:34 AM EDT (4/21)
Length of Visible Light 14h 32m
Length of Day
13h 34m
Waning Gibbous, 58% of the Moon is Illuminated
Apr 21
Waning Gibbous
Apr 22
Last Quarter
Apr 29
New
May 6
First Quarter
May 14
Full

Hourly Weather History & Observations

Time (EDT) Temp. Dew Point Humidity Pressure Visibility Wind Dir Wind Speed Gust Speed Precip Events Conditions
12:54 AM 36.0 °F 28.0 °F 73% 30.32 in - Calm Calm - N/A   Unknown
1:54 AM 35.1 °F 28.0 °F 76% 30.29 in - Calm Calm - N/A   Unknown
2:54 AM 33.1 °F 28.0 °F 82% 30.27 in - Calm Calm - N/A   Unknown
3:54 AM 32.0 °F 28.0 °F 85% 30.25 in - Calm Calm - N/A   Unknown
4:54 AM 30.9 °F 28.0 °F 89% 30.24 in - Calm Calm - N/A   Unknown
5:54 AM 30.0 °F 28.0 °F 92% 30.25 in - Calm Calm - N/A   Unknown
6:54 AM 30.9 °F 28.0 °F 89% 30.24 in - Calm Calm - N/A   Unknown
7:54 AM 37.9 °F 30.0 °F 73% 30.24 in - Calm Calm - N/A   Unknown
8:54 AM 46.0 °F 24.1 °F 42% 30.21 in - Calm Calm - N/A   Unknown
9:54 AM 51.1 °F 18.0 °F 27% 30.19 in - Variable 4.6 mph - N/A   Unknown
10:54 AM 55.0 °F 8.1 °F 15% 30.17 in - North - - N/A   Unknown
11:54 AM 61.0 °F 16.0 °F 17% 30.13 in - Variable 4.6 mph - N/A   Unknown
12:54 PM 64.0 °F 15.1 °F 15% 30.09 in - Variable 4.6 mph - N/A   Unknown
1:54 PM 66.9 °F 18.0 °F 15% 30.05 in - SSW 8.1 mph - N/A   Unknown
2:54 PM 69.1 °F 12.9 °F 11% 30.01 in - Variable 5.8 mph - N/A   Unknown
3:54 PM 70.0 °F 15.1 °F 12% 29.97 in - SW 10.4 mph 17.3 mph N/A   Unknown
4:54 PM 69.1 °F 16.0 °F 13% 29.95 in - SSW 11.5 mph - N/A   Unknown
5:54 PM 68.0 °F 16.0 °F 14% 29.94 in - SW 8.1 mph - N/A   Unknown
6:54 PM 66.0 °F 19.0 °F 17% 29.92 in - SW 8.1 mph - N/A   Unknown
7:54 PM 62.1 °F 26.1 °F 25% 29.91 in - Variable 3.5 mph - N/A   Unknown
8:54 PM 55.0 °F 36.0 °F 49% 29.91 in - Calm Calm - N/A   Unknown
9:54 PM 52.0 °F 37.9 °F 59% 29.90 in - Calm Calm - N/A   Unknown
10:54 PM 48.9 °F 39.0 °F 69% 29.88 in - Calm Calm - N/A   Unknown
11:54 PM 46.0 °F 39.0 °F 76% 29.87 in - Calm Calm - N/A   Unknown